CW0845 Weather Reports


time (UTC)temp
F
wind
direction
speed
knots
gust
knots
rain 1hr
in
rain 24hr
in
rain mn
in
humidity
%
barometer
mb
20260504151014 65 204 7.8 22.6 0.00 0.00 0.00 35 1010.0
20260504150514 65 263 10.4 19.1 0.00 0.00 0.00 33 1010.0
20260504141015 62 249 7.8 16.5 0.00 0.00 0.00 37 1010.6
20260504140507 62 215 7.0 15.6 0.00 0.00 0.00 36 1010.6
20260504130511 60 220 6.1 11.3 0.00 0.00 0.00 43 1010.7
20260504110504 39 175 0.0 1.7 0.00 0.00 0.00 80 1011.6
20260504100507 34 178 0.0 0.0 0.00 0.00 0.00 86 1011.3
20260504082006 38 231 0.0 0.0 0.00 0.00 0.00 79 1011.1
20260504081520 38 225 0.0 0.0 0.00 0.00 0.00 78 1011.1
20260504081016 38 225 0.0 0.0 0.00 0.00 0.00 77 1011.2
20260504080507 39 225 0.0 0.0 0.00 0.00 0.00 76 1011.2
20260504050508 39 199 0.9 1.7 0.00 0.00 0.00 71 1011.4
20260504050020 39 215 0.0 1.7 0.00 0.00 0.00 68 1011.5
20260504045510 39 215 0.9 1.7 0.00 0.00 0.00 69 1011.5
20260504044525 38 208 0.9 1.7 0.00 0.00 0.00 71 1011.6
20260504044011 37 178 0.0 1.7 0.00 0.00 0.00 74 1011.6
20260504043513 37 178 0.9 1.7 0.00 0.00 0.00 73 1011.5
20260504043024 37 178 0.9 1.7 0.00 0.00 0.00 74 1011.6
20260504042510 37 178 0.0 1.7 0.00 0.00 0.00 74 1011.6
20260504042012 37 178 0.0 1.7 0.00 0.00 0.00 75 1011.6
20260504041526 37 178 0.9 0.9 0.00 0.00 0.00 75 1011.5
20260504041008 37 178 0.0 0.9 0.00 0.00 0.00 74 1011.6
20260504040507 37 178 0.0 0.9 0.00 0.00 0.00 75 1011.5
20260504040028 37 178 0.0 1.7 0.00 0.00 0.00 75 1011.6
20260504035509 37 178 0.0 1.7 0.00 0.00 0.00 74 1011.5
20260504035009 38 178 0.0 1.7 0.00 0.00 0.00 73 1011.4
20260504034519 37 178 0.9 1.7 0.00 0.00 0.00 74 1011.3
20260504034008 37 178 0.9 1.7 0.00 0.00 0.00 74 1011.3
20260504033505 37 164 0.9 0.9 0.00 0.00 0.00 74 1011.2
20260504033005 37 164 0.0 0.0 0.00 0.00 0.00 73 1011.2
20260504032504 38 164 0.0 1.7 0.00 0.00 0.00 72 1011.1
20260504032003 38 164 0.0 1.7 0.00 0.00 0.00 72 1011.1
20260504031505 38 164 0.0 1.7 0.00 0.00 0.00 72 1011.1
20260504031004 38 164 0.0 1.7 0.00 0.00 0.00 71 1011.1
20260504030504 38 164 0.0 1.7 0.00 0.00 0.00 70 1011.1
20260504030010 38 164 0.0 1.7 0.00 0.00 0.00 70 1011.1
20260504025506 38 164 0.0 2.6 0.00 0.00 0.00 69 1011.1
20260504025009 38 164 0.0 2.6 0.00 0.00 0.00 69 1011.1
20260504024522 38 183 0.0 1.7 0.00 0.00 0.00 69 1011.2
20260504024007 39 178 0.9 1.7 0.00 0.00 0.00 70 1011.2
20260504023508 39 175 0.9 1.7 0.00 0.00 0.00 67 1011.2
20260504023018 39 198 0.0 0.0 0.00 0.00 0.00 65 1011.2
20260504022511 39 198 0.0 0.0 0.00 0.00 0.00 65 1011.1
20260504022004 40 198 0.0 0.0 0.00 0.00 0.00 64 1011.1
20260504021506 40 198 0.0 0.0 0.00 0.00 0.00 62 1011.1
20260504021004 41 198 0.0 0.0 0.00 0.00 0.00 63 1011.1
20260504020504 41 198 0.0 0.0 0.00 0.00 0.00 61 1011.0
20260504020008 41 198 0.0 0.0 0.00 0.00 0.00 60 1010.9
20260504015503 41 198 0.0 0.0 0.00 0.00 0.00 60 1010.9
20260504015008 41 198 0.0 0.0 0.00 0.00 0.00 58 1010.9
20260504014512 42 198 0.0 0.0 0.00 0.00 0.00 59 1010.8
20260504014013 42 198 0.0 0.0 0.00 0.00 0.00 56 1010.7
20260504013507 42 200 0.0 0.9 0.00 0.00 0.00 54 1010.7
20260504013028 43 156 0.0 0.9 0.00 0.00 0.00 53 1010.7
20260504012508 43 152 0.0 0.9 0.00 0.00 0.00 55 1010.6
20260504012013 43 89 0.0 1.7 0.00 0.00 0.00 55 1010.6
20260504011520 44 89 0.0 1.7 0.00 0.00 0.00 53 1010.6
20260504011012 44 207 0.9 2.6 0.00 0.00 0.00 49 1010.6
20260504010504 43 352 0.0 2.6 0.00 0.00 0.00 55 1010.6
20260504010004 43 121 0.9 1.7 0.00 0.00 0.00 53 1010.4
20260504005503 44 163 0.0 0.0 0.00 0.00 0.00 50 1010.3
20260504005005 44 274 0.0 0.0 0.00 0.00 0.00 49 1010.2
20260504004512 45 274 0.0 0.0 0.00 0.00 0.00 47 1010.1
20260504004007 45 274 0.0 1.7 0.00 0.00 0.00 46 1010.0
20260504003507 46 274 0.0 1.7 0.00 0.00 0.00 45 1009.9
20260504003028 47 263 0.0 1.7 0.00 0.00 0.00 42 1009.9
20260504002507 48 263 0.9 1.7 0.00 0.00 0.00 42 1009.8
20260504002008 48 233 0.0 1.7 0.00 0.00 0.00 38 1009.7
20260504001519 49 282 0.0 1.7 0.00 0.00 0.00 37 1009.6
20260504001010 50 282 0.0 1.7 0.00 0.00 0.00 37 1009.5
20260504000507 51 282 0.0 2.6 0.00 0.00 0.00 35 1009.5
20260504000023 51 284 0.0 9.6 0.00 0.00 0.00 34 1009.4
20260503235503 52 279 0.9 9.6 0.00 0.00 0.00 33 1009.4
20260503235004 52 321 1.7 9.6 0.00 0.00 0.00 31 1009.4
20260503234508 52 333 1.7 5.2 0.00 0.00 0.00 32 1009.4
20260503234004 52 273 2.6 6.1 0.00 0.00 0.00 31 1009.3
20260503233508 52 323 1.7 6.1 0.00 0.00 0.00 34 1009.2
20260503233011 53 45 0.9 7.8 0.00 0.00 0.00 32 1009.1
20260503232507 53 311 1.7 7.8 0.00 0.00 0.00 33 1009.1
20260503232007 53 67 2.6 7.0 0.00 0.00 0.00 34 1009.0
20260503231516 53 296 1.7 6.1 0.00 0.00 0.00 32 1009.0
20260503231007 53 320 0.9 5.2 0.00 0.00 0.00 36 1008.9
20260503230509 53 303 1.7 3.5 0.00 0.00 0.00 36 1009.0
20260503230022 53 317 0.9 11.3 0.00 0.00 0.00 36 1009.0
20260503225510 53 335 0.9 11.3 0.00 0.00 0.00 35 1009.0
20260503225014 54 183 3.5 11.3 0.00 0.00 0.00 34 1009.0
20260503224529 54 293 1.7 7.8 0.00 0.00 0.00 33 1008.9
20260503224005 54 215 2.6 7.8 0.00 0.00 0.00 35 1008.9
20260503223504 54 240 0.9 8.7 0.00 0.00 0.00 36 1009.0
20260503223012 54 338 0.9 8.7 0.00 0.00 0.00 35 1008.9
20260503222507 54 235 1.7 7.8 0.00 0.00 0.00 35 1009.0
20260503222008 54 348 0.9 9.6 0.00 0.00 0.00 35 1009.0
20260503221519 54 302 3.5 9.6 0.00 0.00 0.00 34 1009.0
20260503221009 54 326 2.6 7.8 0.00 0.00 0.00 34 1009.0
20260503220510 54 26 2.6 9.6 0.00 0.00 0.00 36 1009.0
20260503220022 54 108 0.9 11.3 0.00 0.00 0.00 34 1009.0
20260503215509 54 338 4.3 11.3 0.00 0.00 0.00 35 1009.0
20260503215010 54 15 2.6 11.3 0.00 0.00 0.00 34 1009.1
20260503214523 54 310 3.5 11.3 0.00 0.00 0.00 34 1009.0
20260503214010 54 19 2.6 9.6 0.00 0.00 0.00 35 1009.1
20260503213509 54 315 2.6 9.6 0.00 0.00 0.00 36 1009.0
20260503213011 54 352 4.3 9.6 0.00 0.00 0.00 35 1009.0
20260503212510 54 232 2.6 7.8 0.00 0.00 0.00 38 1009.0
20260503212005 54 266 0.9 6.1 0.00 0.00 0.00 36 1009.0
20260503211514 53 315 1.7 10.4 0.00 0.00 0.00 37 1009.0
20260503211006 53 336 2.6 12.2 0.00 0.00 0.00 36 1009.1
20260503210508 54 296 3.5 12.2 0.00 0.00 0.00 35 1009.0
20260503210019 54 52 1.7 10.4 0.00 0.00 0.00 37 1008.9
20260503205509 54 300 1.7 10.4 0.00 0.00 0.00 38 1008.9
20260503205007 53 33 2.6 10.4 0.00 0.00 0.00 38 1008.9
20260503204524 54 296 4.3 9.6 0.00 0.00 0.00 35 1008.9
20260503204010 54 250 3.5 13.0 0.00 0.00 0.00 36 1008.8
20260503203510 54 296 5.2 13.9 0.00 0.00 0.00 35 1008.9
20260503203031 54 271 3.5 13.9 0.00 0.00 0.00 37 1008.9
20260503202514 54 360 4.3 10.4 0.00 0.00 0.00 35 1008.9
20260503202007 53 16 1.7 14.8 0.00 0.00 0.00 36 1008.9
20260503201513 54 236 4.3 14.8 0.00 0.00 0.00 36 1008.9
20260503201007 54 12 3.5 11.3 0.00 0.00 0.00 37 1008.8
20260503200510 53 298 4.3 7.8 0.00 0.00 0.00 37 1008.9
20260503200016 53 332 3.5 9.6 0.00 0.00 0.00 36 1008.9
20260503195510 53 319 3.5 9.6 0.00 0.00 0.00 37 1008.8
20260503195011 53 342 3.5 9.6 0.00 0.00 0.00 37 1008.9
20260503194520 52 9 3.5 9.6 0.00 0.00 0.00 37 1008.9
20260503194007 52 306 2.6 11.3 0.00 0.00 0.00 37 1009.0
20260503193512 52 339 4.3 11.3 0.00 0.00 0.00 37 1008.9
20260503193024 52 340 2.6 9.6 0.00 0.00 0.00 38 1008.9
20260503192508 53 298 2.6 10.4 0.00 0.00 0.00 38 1008.8
20260503192014 52 28 3.5 10.4 0.00 0.00 0.00 37 1008.8
20260503191527 52 55 2.6 8.7 0.00 0.00 0.00 38 1008.9
20260503191010 52 265 3.5 11.3 0.00 0.00 0.00 38 1008.8
20260503190508 52 34 2.6 12.2 0.00 0.00 0.00 38 1008.9
20260503190013 52 319 4.3 12.2 0.00 0.00 0.00 40 1009.0
20260503185507 52 290 2.6 9.6 0.00 0.00 0.00 38 1008.9
20260503185007 51 315 2.6 12.2 0.00 0.00 0.00 39 1009.0
20260503184520 52 288 4.3 12.2 0.00 0.00 0.00 38 1009.1
20260503184007 52 299 4.3 10.4 0.00 0.00 0.00 39 1008.8
20260503183511 52 232 5.2 15.6 0.00 0.00 0.00 38 1008.9
20260503183025 51 290 2.6 15.6 0.00 0.00 0.00 40 1008.9
20260503182509 51 352 4.3 13.0 0.00 0.00 0.00 39 1008.8
20260503182009 51 312 2.6 11.3 0.00 0.00 0.00 39 1008.9
20260503181526 52 263 7.0 10.4 0.00 0.00 0.00 38 1008.8
20260503181009 53 360 1.7 9.6 0.00 0.00 0.00 40 1008.9
20260503180509 52 248 0.9 7.8 0.00 0.00 0.00 40 1009.0
20260503180034 51 9 2.6 9.6 0.00 0.00 0.00 43 1009.1
20260503175512 51 310 3.5 9.6 0.00 0.00 0.00 43 1009.2
20260503175007 51 306 2.6 11.3 0.00 0.00 0.00 44 1009.1
20260503174519 51 284 3.5 11.3 0.00 0.00 0.00 43 1009.1
20260503174009 52 284 2.6 14.8 0.00 0.00 0.00 41 1009.0
20260503173509 53 312 3.5 14.8 0.00 0.00 0.00 41 1008.9
20260503173032 53 263 2.6 14.8 0.00 0.00 0.00 43 1009.0
20260503172514 53 281 2.6 14.8 0.00 0.00 0.00 40 1009.0
20260503172010 53 352 4.3 17.4 0.00 0.00 0.00 43 1009.0
20260503171524 53 291 6.1 17.4 0.00 0.00 0.00 40 1008.9
20260503171009 53 286 7.0 15.6 0.00 0.00 0.00 41 1008.9
20260503170509 53 134 4.3 12.2 0.00 0.00 0.00 42 1009.0